User: anonymous   Login
Location: Go�ngahuizen
(53.0821°N, 5.8849°E)
Time: 17:39:35
(UTC+00:00)
Language:

Cosmos 1805 Rocket - Orbit

View from above orbital plane
View from above orbital plane
View from above satellite
View from above satellite

Ground track
Ground track

The orbit data is extracted from the following two-line orbital elements,

1 17192U 86097B   20196.22709953  .00000041  00000-0  20668-5 0  9997
2 17192  82.5072 282.3747 0017040   4.8006  25.2166 14.83609334815185
Epoch (UTC): 14 July 2020 05:27:01
Eccentricity: 0.0017040
inclination: 82.5072°
perigee height: 606 km
apogee height: 630 km
right ascension of ascending node: 282.3747°
argument of perigee: 4.8006°
revolutions per day: 14.83609334
mean anomaly at epoch: 25.2166°
orbit number at epoch: 81518

The dashed part of the orbit path shows where the satellite is in the earth's shadow,  

DLR